Regional Weather Roundup
Issued by NWS State College, PA

Home | Current Version | Previous Version | Text Only | Print | Product List | Glossary Off
Versions: 1 2 3 4 5 6 7 8 9 10 11 12 13 14 15 16 17 18 19 20 21 22 23 24 25 26 27 28 29 30 31 32 33 34 35 36 37 38 39 40 41 42 43 44 45 46 47 48 49 50

000
ASUS41 KCTP 040710
RWRCTP

REGIONAL WEATHER ROUNDUP
NATIONAL WEATHER SERVICE STATE COLLEGE PA
300 AM EDT TUE AUG 04 2015

Note: "fair" indicates few or no clouds below 12,000 feet with no
significant weather and/or obstructions to visibility.

* = STATION THAT DOES NOT REPORT PRECIPITATION /E.G. RAIN...SNOW...ETC/
    THUNDER OR FOG.

PAZ002>004-007>009-013>016-020>023-029>032-040800-
WESTERN PENNSYLVANIA

CITY           SKY/WX    TMP DP  RH WIND       PRES   REMARKS
ERIE           CLEAR     64  60  87 S6        29.84S
MEADVILLE      CLEAR     62  59  90 SW6       29.88S
FRANKLIN*      PTCLDY    59  55  88 SW6       29.89F
NEW CASTLE     FAIR      61  61 100 CALM      29.89F
BEAVER COUNTY  NOT AVBL
BUTLER*        PTCLDY    63  61  94 W3        29.90S
PITTSBURGH INT PTCLDY    65  63  93 W7        29.89R
PITTSBURGH     CLEAR     65  61  87 W5        29.87S
INDIANA*       CLEAR     64  64 100 CALM      29.91S
LATROBE        NOT AVBL
WASHINGTON CO* NOT AVBL
$$

PAZ004>006-010>012-017>019-024>028-033>037-041-042-045-046-049>053-040800-
CENTRAL PENNSYLVANIA

CITY           SKY/WX    TMP DP  RH WIND       PRES   REMARKS
BRADFORD       FOG       58  56  93 CALM      29.89S VSB 1/4
DUBOIS         CLOUDY    63  61  93 CALM      29.88S FOG
CLEARFIELD     CLOUDY    63  61  93 SW5       29.88F
JOHNSTOWN      CLOUDY    63  60  90 S6        29.91S
ALTOONA        CLOUDY    65  61  87 SW7       29.90R
STATE COLLEGE  CLOUDY    63  61  93 SW5       29.86S
WILLIAMSPORT   MOCLDY    69  63  81 CALM      29.81S
SELINSGROVE    LGT RAIN  68  65  90 CALM      29.84S
FT INDIANTOWN  LGT RAIN  66  64  94 NE1       29.84S
CAPITAL CITY   CLOUDY    71  63  75 SW5       29.85S
HARRISBURG     CLOUDY    73  63  70 W6        29.84R THUNDER
YORK           TSTM      67  63  87 W7G28     29.87R FOG
$$

PAZ038>040-043-044-047-048-054-055-060>062-067>071-040800-
EASTERN PENNSYLVANIA

CITY           SKY/WX    TMP DP  RH WIND       PRES   REMARKS
SCRANTON       CLOUDY    70  67  90 S3        29.84R
MOUNT POCONO   CLOUDY    67  64  90 SW8       29.89R
ALLENTOWN      TSTM      67  64  90 SE6       29.86R
QUAKERTOWN*    PTSUNNY   68  64  88 NW6G16    29.88R
READING        MOCLDY    69  63  81 CALM      29.84F
LANCASTER      MOCLDY    68  66  93 E3        29.84S
COATESVILLE    MOSUNNY   68  68 100 CALM      29.87R
POTTSTOWN      MOCLDY    68  65  90 N6        29.87R
BLUE BELL      MOCLDY    70  68  94 CALM      29.83S
DOYLESTOWN     CLOUDY    66  65  96 NE5       29.82F THUNDER
WILLOW GROVE   NOT AVBL
NORTH PHILA    MOCLDY    75  61  61 S5        29.85R
PHILADELPHIA   MOCLDY    77  63  61 CALM      29.84S
$$



USA.gov is the U.S. government's official web portal to all federal, state and local government web resources and services.